Location: Bijele Vode
(45.2833°N, 16.2000°E)
Time: 10:50:00
(UTC+00:00)

CZ-2C R/B - Pass Details

Date: 25 January 2021
Orbit: 390 x 584 km, 35.0° (Epoch: 25 February)

Event Time Altitude Azimuth Distance (km) Brightness Sun altitude
Exits shadow 04:34:52 17° 210° (SSW) 1,449 3.2 -19.0°
Maximum altitude 04:36:20 20° 184° (S) 1,302 3.2 -18.7°
Drops below altitude 10° 04:39:19 10° 136° (SE) 1,768 4.7 -18.2°
Sets 04:41:57 0° 119° (ESE) 2,616 6.1 -17.7°
